• Join FlightAware (Why Join?)
  • Login
  • US Flag GB Flag 
12:27 EDT


 

Airport Tracker/Info


-or-


 

Live Flight TrackerFlight Track Log ✈ AAY876 ✈ 22-Mar-2014 ✈ KPIE - KRFD

Flight Track Log - Related Links

Times and Time Zones

All times are in EDT time to prevent confusion due to time zone crossing. See the AAY876 flight status page for this flight to view local times or setup timezone preferences in your user account.

Time Position Orientation Groundspeed Altitude Reporting Facility
EDT Latitude Longitude Course Direction KTS MPH feet Rate Location/Type
16:19 27.9333 -82.6833 360° North 175 201 700  Level Tampa TRACON
16:20 27.9667 -82.6833 360° North 190 219 1,900 1,620 Climbing Tampa TRACON
16:21 28.0333 -82.6500 24° Northeast 272 313 3,700 1,920 Climbing Tampa TRACON
16:22 28.1000 -82.6667 348° North 260 299 5,800 2,040 Climbing Tampa TRACON
16:24 28.2417 -82.7183 342° North 270 311 10,300 1,860 Climbing Jacksonville Center
16:25 28.3356 -82.7417 348° North 304 350 11,700 1,800 Climbing Jacksonville Center
16:26 28.4400 -82.7650 349° North 349 402 13,900 2,460 Climbing Jacksonville Center
16:27 28.5483 -82.7861 350° North 381 438 16,700 2,400 Climbing Jacksonville Center
16:28 28.6569 -82.8050 351° North 393 452 18,800 1,800 Climbing Jacksonville Center
16:29 28.7822 -82.8144 356° North 393 452 20,400 2,100 Climbing Jacksonville Center
16:30 28.8908 -82.8356 350° North 404 465 23,000 2,040 Climbing Jacksonville Center
16:31 28.9931 -82.8856 337° Northwest 398 458 24,500 1,200 Climbing Jacksonville Center
16:32 29.1017 -82.9211 344° North 398 458 25,400 1,260 Climbing Jacksonville Center
16:33 29.2058 -82.9686 338° Northwest 398 458 27,100 1,560 Climbing Jacksonville Center
16:34 29.3144 -83.0092 342° North 404 465 28,600 1,440 Climbing Jacksonville Center
16:35 29.4167 -83.0569 338° Northwest 404 465 30,000 1,320 Climbing Jacksonville Center
16:36 29.5189 -83.0978 341° North 404 465 31,300 960 Climbing Jacksonville Center
16:37 29.6192 -83.1433 338° Northwest 396 456 32,000 300 Climbing Jacksonville Center
16:38 29.7214 -83.1819 342° North 374 430 32,000  Level Jacksonville Center
16:39 29.8214 -83.2300 337° Northwest 380 437 32,000  Level Jacksonville Center
16:40 29.9153 -83.2664 341° North 389 448 32,000  Level Jacksonville Center
16:41 30.0133 -83.3100 339° North 384 442 32,000  Level Jacksonville Center
16:42 30.1133 -83.3489 341° North 384 442 32,000  Level Jacksonville Center
16:43 30.2133 -83.3950 338° Northwest 384 442 32,000  Level Jacksonville Center
16:44 30.3133 -83.4339 341° North 384 442 32,000  Level Jacksonville Center
16:45 30.4156 -83.4803 339° North 389 448 32,000  Level Jacksonville Center
16:46 30.5175 -83.5194 342° North 389 448 32,000  Level Jacksonville Center
16:47 30.6156 -83.5661 338° Northwest 384 442 32,000  Level Jacksonville Center
16:48 30.7156 -83.6053 341° North 379 436 32,000  Level Jacksonville Center
16:49 30.8114 -83.6497 338° Northwest 374 430 32,000  Level Jacksonville Center
16:50 30.9114 -83.6939 339° North 374 430 32,000  Level Jacksonville Center
16:52 31.0847 -83.7722 339° North 377 434 32,000  Level Atlanta Center
16:53 31.1872 -83.8156 340° North 377 434 32,000  Level Atlanta Center
16:54 31.2853 -83.8592 339° North 377 434 32,000  Level Atlanta Center
16:55 31.3833 -83.8978 341° North 377 434 32,000  Level Atlanta Center
16:56 31.4794 -83.9439 338° Northwest 371 427 32,000  Level Atlanta Center
16:57 31.5858 -83.9706 348° North 377 434 32,000  Level Atlanta Center
16:58 31.6839 -83.9950 348° North 382 440 32,000  Level Atlanta Center
16:59 31.7906 -84.0194 349° North 388 447 32,000  Level Atlanta Center
17:00 31.8969 -84.0389 351° North 394 453 32,000  Level Atlanta Center
17:01 32.0011 -84.0683 347° North 383 441 32,000  Level Atlanta Center
17:03 32.2100 -84.1150 349° North 383 441 32,000  Level Atlanta Center
17:04 32.3164 -84.1322 352° North 378 435 32,000  Level Atlanta Center
17:05 32.4167 -84.1619 346° North 373 429 32,000  Level Atlanta Center
17:06 32.5231 -84.1792 352° North 373 429 32,000  Level Atlanta Center
17:07 32.6211 -84.2067 347° North 368 423 32,000  Level Atlanta Center
17:09 32.8256 -84.2589 348° North 374 430 32,000  Level Atlanta Center
17:10 32.9278 -84.2789 351° North 373 429 32,000  Level Atlanta Center
17:11 33.0258 -84.3064 347° North 368 423 32,000  Level Atlanta Center
17:12 33.1303 -84.3267 351° North 368 423 32,000  Level Atlanta Center
17:13 33.2303 -84.3517 348° North 373 429 32,000  Level Atlanta Center
17:14 33.3347 -84.3719 351° North 373 429 32,000  Level Atlanta Center
17:15 33.4347 -84.3997 347° North 373 429 32,000  Level Atlanta Center
17:16 33.5517 -84.4203 352° North 373 429 32,000  Level Atlanta Center
17:17 33.6433 -84.4431 348° North 381 438 32,000  Level Atlanta Center
17:18 33.7497 -84.4661 350° North 374 430 32,000 600 Level Atlanta Center
17:19 33.8539 -84.4917 348° North 374 430 33,300 840 Climbing Atlanta Center
17:20 33.9603 -84.5197 348° North 363 418 33,700 300 Climbing Atlanta Center
17:21 34.0625 -84.5428 349° North 373 429 34,000 120 Climbing Atlanta Center
17:22 34.1583 -84.5661 349° North 378 435 34,000  Level Atlanta Center
17:23 34.2606 -84.5892 349° North 378 435 34,000  Level Atlanta Center
17:24 34.3753 -84.6175 348° North 373 429 34,000  Level Atlanta Center
17:25 34.4775 -84.6411 349° North 378 435 34,000  Level Atlanta Center
17:26 34.5817 -84.6669 348° North 378 435 34,000  Level Atlanta Center
17:27 34.6794 -84.6956 346° North 373 429 34,000  Level Atlanta Center
17:28 34.7817 -84.7217 348° North 368 423 34,000  Level Atlanta Center
17:29 34.8900 -84.7453 350° North 374 430 34,000  Level Atlanta Center
17:30 34.9942 -84.7739 347° North 374 430 34,000  Level Atlanta Center
17:31 35.1025 -84.7978 350° North 379 436 34,000  Level Atlanta Center
17:32 35.2047 -84.8292 346° North 384 442 34,000  Level Atlanta Center
17:33 35.3150 -84.8506 351° North 389 448 34,000  Level Atlanta Center
17:34 35.3983 -84.8769 346° North 389 448 34,000  Level Atlanta Center
17:35 35.5044 -84.8986 351° North 389 448 34,000  Level Atlanta Center
17:36 35.6169 -84.9328 346° North 389 448 34,000  Level Atlanta Center
17:37 35.7253 -84.9544 351° North 389 448 34,000  Level Atlanta Center
17:38 35.8336 -84.9839 348° North 397 457 34,000  Level Atlanta Center
17:39 35.8872 -84.9967 349° North 390 449 34,000  Level Indianapolis Center
17:40 36.0081 -85.0264 349° North 392 451 34,000  Level Indianapolis Center
17:41 36.1164 -85.0550 348° North 396 456 34,000  Level Indianapolis Center
17:42 36.2242 -85.0800 349° North 398 458 34,000  Level Indianapolis Center
17:43 36.3308 -85.1114 347° North 391 450 34,000  Level Indianapolis Center
17:44 36.4400 -85.1361 350° North 396 456 34,000  Level Indianapolis Center
17:45 36.5456 -85.1675 347° North 395 455 34,000  Level Indianapolis Center
17:46 36.6753 -85.2006 348° North 395 455 34,000  Level Indianapolis Center
17:47 36.7836 -85.2272 349° North 395 455 34,000  Level Indianapolis Center
17:48 36.8922 -85.2536 349° North 398 458 34,000  Level Indianapolis Center
17:49 37.0000 -85.2828 348° North 397 457 34,000  Level Indianapolis Center
17:50 37.1086 -85.3133 347° North 397 457 34,000  Level Indianapolis Center
17:51 37.2172 -85.3394 349° North 396 456 34,000  Level Indianapolis Center
17:52 37.3250 -85.3678 348° North 396 456 34,000  Level Indianapolis Center
17:53 37.4503 -85.4008 348° North 395 455 34,000  Level Indianapolis Center
17:54 37.5572 -85.4317 347° North 395 455 34,000  Level Indianapolis Center
17:55 37.6636 -85.4581 349° North 390 449 34,000  Level Indianapolis Center
17:56 37.7728 -85.4872 348° North 395 455 34,000  Level Indianapolis Center
17:57 37.8717 -85.5153 347° North 389 448 34,000  Level Indianapolis Center
17:58 37.9786 -85.5436 348° North 388 447 34,000  Level Indianapolis Center
17:59 38.1067 -85.5786 348° North 390 449 34,000  Level Indianapolis Center
18:00 38.2017 -85.6347 335° Northwest 383 441 34,000  Level Indianapolis Center
18:01 38.2994 -85.6881 337° Northwest 382 440 34,000  Level Indianapolis Center
18:02 38.3925 -85.7511 332° Northwest 381 438 34,000  Level Indianapolis Center
18:03 38.4917 -85.8036 337° Northwest 381 438 34,000  Level Indianapolis Center
18:04 38.5856 -85.8633 334° Northwest 380 437 34,000  Level Indianapolis Center
18:05 38.6839 -85.9175 337° Northwest 385 443 34,000  Level Indianapolis Center
18:06 38.7769 -85.9781 333° Northwest 381 438 34,000  Level Indianapolis Center
18:07 38.8931 -86.0467 335° Northwest 380 437 34,000  Level Indianapolis Center
18:08 38.9608 -86.1133 323° Northwest 369 425 34,000  Level Indianapolis Center
18:09 39.0664 -86.1981 328° Northwest 369 425 34,000  Level Indianapolis Center
18:10 39.1492 -86.2778 323° Northwest 370 426 34,000  Level Indianapolis Center
18:12 39.2378 -86.3483 328° Northwest 372 428 34,000  Level Indianapolis Center
18:13 39.3194 -86.4283 323° Northwest 370 426 34,000  Level Indianapolis Center
18:14 39.4089 -86.4994 328° Northwest 372 428 34,000  Level Indianapolis Center
18:15 39.4919 -86.5797 323° Northwest 372 428 34,000  Level Indianapolis Center
18:16 39.5800 -86.6517 328° Northwest 371 427 34,000  Level Indianapolis Center
18:17 39.6622 -86.7297 324° Northwest 368 423 34,000  Level Indianapolis Center
18:18 39.7667 -86.8175 327° Northwest 368 423 34,000  Level Indianapolis Center
18:19 39.8478 -86.8992 322° Northwest 368 423 34,000  Level Indianapolis Center
18:20 39.9364 -86.9708 328° Northwest 369 425 34,000  Level Indianapolis Center
18:21 40.0189 -87.0525 323° Northwest 370 426 34,000  Level Indianapolis Center
18:22 40.1081 -87.1244 328° Northwest 371 427 34,000  Level Indianapolis Center
18:23 40.1719 -87.1908 322° Northwest 371 427 34,000  Level Chicago Center
18:24 40.2494 -87.2769 320° Northwest 368 423 34,000  Level Chicago Center
18:25 40.3164 -87.3722 313° West 354 407 34,000  Level Chicago Center
18:26 40.3975 -87.4761 316° Northwest 360 414 34,000  Level Chicago Center
18:27 40.4647 -87.5706 313° West 358 412 34,000  Level Chicago Center
18:28 40.5356 -87.6639 315° West 360 414 34,000  Level Chicago Center
18:29 40.6025 -87.7586 313° West 357 411 34,000  Level Chicago Center
18:30 40.6742 -87.8517 315° West 358 412 34,000  Level Chicago Center
18:31 40.7408 -87.9461 313° West 356 410 34,000  Level Chicago Center
18:32 40.8081 -88.0350 315° West 357 411 34,000  Level Chicago Center
18:33 40.8889 -88.1483 313° West 357 411 34,000  Level Chicago Center
18:34 40.9569 -88.2439 313° West 360 414 34,000  Level Chicago Center
18:35 41.0253 -88.3381 314° West 359 413 34,000 -1,140 Level Chicago Center
18:36 41.0958 -88.4392 313° West 356 410 31,700 -2,340 Descending Chicago Center
18:37 41.1625 -88.5311 314° West 347 399 29,300 -2,640 Descending Chicago Center
18:38 41.2275 -88.6292 311° West 348 400 26,400 -2,640 Descending Chicago Center
18:39 41.2969 -88.7225 315° West 352 405 23,900 -2,400 Descending Chicago Center
18:40 41.3639 -88.8147 314° West 352 405 21,500 -2,340 Descending Chicago Center
18:41 41.4256 -88.9067 312° West 339 390 19,200 -2,100 Descending Chicago Center
18:42 41.4911 -88.9936 315° West 336 387 17,200 -2,220 Descending Chicago Center
18:43 41.5625 -89.1031 311° West 331 381 14,700 -2,040 Descending Chicago Center
18:44 41.6242 -89.1908 313° West 328 377 13,000 -840 Descending Chicago Center
18:45 41.7056 -89.2164 347° North 316 364 13,000 -840 Level Chicago Center
18:46 41.7947 -89.1958 10° North 323 372 11,400 -1,920 Descending Chicago Center
18:47 41.8664 -89.1778 11° North 269 310 9,100 -2,220 Descending Chicago Center
18:48 41.9367 -89.1539 14° North 254 292 6,900 -2,280 Descending Chicago Center
18:49 42.0003 -89.1411 North 228 262 4,400 -2,160 Descending Chicago Center
18:50 42.0569 -89.1133 20° North 221 254 2,600 -1,800 Descending Chicago Center
18:52 42.1833 -89.0833 14° North  Level FlightAware Approximate
18:59 42.1954 -89.0972 14° North  Level Estimated